Ukiivik

KL  EN  DA
ASIAQ
Weather Now GREENLAND SURVEY
Updated [WGT/WGST] Temperature [°C] Wind [m/s] Air pressure [hPa] Relative humidity [%] Precipitation [mm]
Present Wind chill Speed Max
18.04 00:00-7,2-13,24,1 ⇐5,7101653n/a
17.04 23:00-6,7-11,73,1 ⇙5,7101647n/a
17.04 22:00-6,8-11,22,6 ⇙3,6101641n/a
17.04 21:00-6,8-11,83,1 ⇓4,6101640n/a
17.04 20:00n/an/an/an/an/an/an/a
17.04 19:00-6,8-12,74,1 ⇓5,7101544n/a
17.04 18:00-6,6-12,94,6 ⇓6,2101540n/a
17.04 17:00-6,4-12,64,6 ⇘6,7101442n/a
17.04 16:00-6,4-13,05,1 ⇓7,7101445n/a
17.04 15:00-6,8-12,33,6 ⇓5,7101344n/a
17.04 14:00-6,9-13,24,6 ⇓8,8101347n/a
17.04 13:00-7,3-13,34,1 ⇓6,2101348n/a
17.04 12:00-7,6-14,55,1 ⇓7,2101245n/a
17.04 11:00-8,0-12,62,6 ⇓4,6101248n/a
17.04 10:00-8,1-13,93,6 ⇙5,1101249n/a
17.04 09:00-8,6-14,94,1 ⇙5,7101250n/a
17.04 08:00-9,1-15,13,6 ⇙6,2101154n/a
17.04 07:00-9,3-15,84,1 ⇙5,7101157n/a
17.04 06:00-9,3-15,84,1 ⇙6,2101058n/a
17.04 05:00-9,6-14,52,6 ⇐4,6101056n/a
17.04 04:00-9,8-15,93,6 ⇐5,1100957n/a
17.04 03:00-10,0-16,23,6 ⇐4,6100959n/a
17.04 02:00-9,7-16,34,1 ⇐5,7100961n/a
17.04 01:00-8,8-16,45,7 ⇓7,2100847n/a
17.04 00:00-8,7-16,96,7 ⇓8,2100852n/a
Position: (62.57888889,-50.40583333)

[Back]